User: anonymous   Login
Location: Nairn
(57.5833°N, 3.8667°W)
Time: 13:08:01
(UTC+00:00)
Language:

Explorer 7 - Orbit

View from above orbital plane
View from above orbital plane
View from above satellite
View from above satellite

Ground track
Ground track

The orbit data is extracted from the following two-line orbital elements,

1 00022U 59009A   22276.80089388  .00004620  00000-0  34747-3 0  9990
2 00022  50.2816 123.8913 0133614 225.6496 133.3442 14.97508060595860
Epoch (UTC): 03 October 2022 19:13:17
Eccentricity: 0.0133614
inclination: 50.2816°
perigee height: 482 km
apogee height: 667 km
right ascension of ascending node: 123.8913°
argument of perigee: 225.6496°
revolutions per day: 14.97508060
mean anomaly at epoch: 133.3442°
orbit number at epoch: 59586

The dashed part of the orbit path shows where the satellite is in the earth's shadow,  

DLR